Weather - Helsinki Query any day in the database

Current weather  

Weather data for a selected day (2006-01-01 -2020-10-30)
Enter date:     <-     scroll days         ->
day curves
Low temperature°C -12.008:20
High temperature°C -1.023:50
Low wind chill°C -17.804:20
Average temperature°C -6.6 
High wind speed (10 min) m/s 6.022:50
Low pressurehPa 1021.023:50
High pressurehPa 1039.009:20
Low R.H% 4913:50
High R.H% 8509:50
Day weather data as a table
Date Time Temp
°C
Chill
°C
Pressure
hPA
Wind
m/s
Hum
%
Precip
mm
2008-02-16 23:50:00 -1.0  -6.2  1021.0 5.0 74 -
2008-02-16 23:20:00 -1.0  -6.2  1022.0 5.0 74 -
2008-02-16 22:50:00 -2.0  -8.0  1023.0 6.0 74 -
2008-02-16 22:20:00 -2.0  -8.0  1024.0 6.0 74 -
2008-02-16 21:50:00 -2.0  -8.0  1025.0 6.0 74 -
2008-02-16 21:20:00 -2.0  -8.0  1026.0 6.0 68 -
2008-02-16 20:50:00 -3.0  -9.3  1027.0 6.0 73 -
2008-02-16 20:20:00 -3.0  -9.3  1028.0 6.0 73 -
2008-02-16 19:50:00 -3.0  -8.7  1028.0 5.0 68 -
2008-02-16 19:20:00 -4.0  -9.9  1029.0 5.0 73 -
2008-02-16 18:50:00 -4.0  -9.2  1030.0 4.0 68 -
2008-02-16 18:20:00 -5.0  -10.4  1031.0 4.0 67 -
2008-02-16 17:50:00 -5.0  -10.4  1031.0 4.0 57 -
2008-02-16 17:20:00 -5.0  -10.4  1032.0 4.0 57 -
2008-02-16 16:50:00 -4.0  -9.9  1033.0 5.0 53 -
2008-02-16 16:20:00 -4.0  -9.2  1034.0 4.0 53 -
2008-02-16 15:50:00 -4.0  -9.2  1034.0 4.0 53 -
2008-02-16 14:50:00 -4.0  -8.3  1035.0 3.0 49 -
2008-02-16 14:20:00 -4.0  -9.2  1035.0 4.0 49 -
2008-02-16 13:50:00 -4.0  -9.2  1036.0 4.0 49 -
2008-02-16 13:20:00 -5.0  -9.5  1036.0 3.0 57 -
2008-02-16 12:50:00 -6.0  -9.5  1037.0 2.0 62 -
2008-02-16 12:20:00 -7.0  -11.9  1037.0 3.0 67 -
2008-02-16 11:50:00 -8.0  -13.1  1038.0 3.0 72 -
2008-02-16 11:20:00 -9.0  -14.3  1038.0 3.0 78 -
2008-02-16 10:50:00 -10.0  -11.9  1038.0 1.0 78 -
2008-02-16 09:50:00 -11.0  -16.7  1038.0 3.0 85 -
2008-02-16 09:20:00 -11.0  -16.7  1039.0 3.0 78 -
2008-02-16 08:20:00 -12.0  -16.5  1039.0 2.0 85 -
2008-02-16 07:50:00 -12.0  -16.5  1039.0 2.0 85 -
2008-02-16 06:20:00 -12.0  -16.5  1038.0 2.0 85 -
2008-02-16 05:50:00 -12.0  -16.5  1038.0 2.0 85 -
2008-02-16 05:20:00 -11.0  -16.7  1038.0 3.0 78 -
2008-02-16 04:50:00 -11.0  -16.7  1038.0 3.0 85 -
2008-02-16 04:20:00 -11.0  -17.8  1038.0 4.0 85 -
2008-02-16 03:20:00 -10.0  -16.6  1038.0 4.0 78 -
2008-02-16 02:20:00 -10.0  -16.6  1037.0 4.0 78 -
2008-02-16 01:50:00 -10.0  -16.6  1037.0 4.0 78 -
2008-02-16 01:20:00 -9.0  -16.2  1037.0 5.0 72 -
2008-02-16 00:50:00 -9.0  -15.4  1037.0 4.0 72 -
2008-02-16 00:20:00 -9.0  -15.4  1036.0 4.0 72 -
Unit conversions: